Theta_e
310 310 311 312 313 315 317 315 314 314 314 313 314 314 314 315 318 317 319 321 319 333 338 338 333 328 336 338 338 338 340 343 341 337 335 345 348 347 346 345 346 347 345 339 335 335 333 333 334 334 334 332 326 320 319 322 326 329 327 322 319 317 314 312 311 310 310 311 312 312 311 311 313 316 318 320 321 323 325 326 329 332 334 336 337 337 337 337 337 337 337 337 337 336 334 329 320
309 310 310 313 314 317 319 316 313 314 314 312 313 314 314 315 318 317 321 326 328 340 343 341 337 336 340 337 338 338 341 343 339 342 346 348 347 347 347 345 346 347 345 338 336 335 334 333 334 334 334 332 325 320 319 320 322 324 322 319 318 314 310 310 310 310 310 311 312 312 312 312 313 316 318 320 321 323 325 327 329 332 334 337 338 338 337 337 337 337 337 337 336 334 331 324 315
309 311 311 314 316 317 320 316 313 314 312 311 312 314 314 315 318 317 320 327 334 342 341 340 340 341 341 336 340 340 341 341 341 345 348 348 347 348 348 346 346 348 345 338 337 335 334 334 334 334 334 331 323 319 319 319 320 320 319 317 315 311 309 310 310 310 311 312 312 312 312 312 313 316 319 320 321 323 325 327 329 331 334 336 338 338 338 337 336 335 335 334 332 331 329 322 315
310 312 314 316 318 318 319 316 315 313 311 311 312 313 315 317 318 316 318 320 326 335 335 339 343 342 341 338 342 342 343 344 346 347 347 348 347 347 348 347 348 349 344 338 337 335 334 334 334 335 334 331 321 318 319 318 319 318 317 315 313 311 310 310 310 310 310 311 312 313 313 311 312 316 319 321 322 323 326 327 328 330 333 335 336 337 336 335 333 332 331 329 328 326 323 318 315
311 315 317 318 319 320 318 316 315 313 311 312 312 314 315 316 316 315 318 318 324 328 329 339 345 342 343 344 345 346 346 346 348 347 348 348 345 347 348 347 349 349 343 338 337 336 335 334 335 335 335 331 321 318 319 318 318 317 315 314 313 311 310 310 310 310 310 311 312 313 313 312 312 315 319 321 323 325 326 326 326 327 330 332 333 334 333 332 330 329 328 326 323 319 317 316 315
313 318 319 319 319 319 317 315 315 314 313 313 313 315 315 315 316 317 318 319 329 327 323 336 344 342 345 346 345 347 346 346 347 347 348 347 346 347 347 346 349 349 343 338 337 337 336 335 335 335 334 332 322 317 319 317 317 315 314 314 313 311 310 310 310 310 311 311 312 313 313 312 312 313 317 321 323 324 325 326 326 327 328 330 331 332 330 328 326 325 324 322 318 315 316 316 315
315 320 320 319 317 317 318 316 316 316 315 313 315 315 316 316 316 318 318 319 329 332 329 339 345 343 345 346 345 346 346 346 346 346 347 348 347 346 345 345 349 349 343 338 338 337 337 336 335 335 334 332 324 317 319 317 315 314 313 314 313 312 311 310 310 310 310 311 312 313 313 312 312 313 315 320 323 324 325 326 328 328 328 328 329 328 326 324 323 322 321 319 316 315 316 315 313
316 319 320 318 317 317 318 317 316 317 316 314 315 316 318 318 318 318 319 318 321 333 340 344 345 342 344 347 347 346 346 346 346 346 347 348 348 348 345 345 349 349 343 338 339 339 337 337 335 336 335 334 326 318 319 317 314 314 314 314 313 312 311 311 311 310 310 311 312 312 313 313 312 312 314 317 321 324 326 328 329 328 326 326 325 324 323 322 322 320 319 317 317 316 316 313 311
316 318 318 317 316 316 316 316 316 316 316 315 316 317 319 318 318 318 319 318 316 329 344 345 342 340 343 348 347 346 345 345 346 346 347 348 348 349 346 345 349 349 343 339 342 341 337 338 336 336 335 334 329 320 319 317 314 314 314 315 314 314 312 312 311 311 311 311 312 312 313 313 313 312 313 316 319 322 325 326 327 326 325 324 323 323 323 322 321 318 318 318 318 317 315 313 312
316 317 316 316 315 315 314 314 315 315 315 316 316 317 317 317 317 318 317 317 320 333 345 344 341 342 345 349 347 346 346 345 345 346 347 348 348 349 347 346 348 348 343 340 343 342 338 338 337 336 335 335 332 325 321 318 316 314 314 314 314 314 314 313 312 312 311 311 311 312 313 313 313 312 312 314 316 319 322 323 324 324 323 324 324 324 323 322 320 318 319 320 318 317 316 314 313
317 316 314 315 314 313 313 313 314 315 315 315 317 317 316 316 315 316 316 322 333 341 346 343 341 345 347 349 347 345 345 345 346 346 347 349 349 349 348 347 347 347 343 341 343 342 339 338 337 336 336 335 333 329 324 321 319 317 316 315 314 314 314 314 313 313 312 312 311 312 313 313 312 312 311 313 313 315 319 321 321 321 322 323 325 324 323 322 320 319 322 322 320 319 318 315 314
317 316 314 315 314 313 313 314 314 315 317 317 317 317 314 314 315 316 316 328 342 345 345 342 339 345 348 348 347 345 345 345 345 347 347 349 349 348 347 346 347 346 344 343 343 343 340 338 337 336 335 336 335 331 325 322 320 318 318 316 314 314 314 314 313 313 313 313 312 312 312 312 312 313 312 312 313 313 315 317 318 318 320 321 324 325 324 323 320 320 323 323 322 321 318 317 316
317 315 314 314 313 314 314 314 315 316 318 317 316 314 316 316 314 319 326 337 345 344 343 340 340 345 347 347 347 345 345 345 345 346 346 347 348 348 347 346 347 346 344 343 343 343 341 338 338 337 336 336 336 332 326 321 319 318 317 316 316 317 316 315 314 313 314 314 314 313 312 311 311 312 312 312 312 313 313 314 315 316 317 318 322 325 325 324 321 321 324 323 324 323 321 320 319
317 316 315 314 313 314 314 314 315 316 317 316 315 312 321 324 318 325 338 342 343 344 342 340 343 345 345 346 345 345 345 345 345 346 346 346 347 347 347 346 347 346 344 343 343 342 340 339 338 337 337 337 337 334 327 322 319 319 319 320 321 323 323 321 320 317 314 314 314 313 313 312 312 311 312 314 313 313 314 314 314 315 315 315 318 324 325 324 322 322 323 324 325 325 324 323 321
317 316 316 316 314 314 314 314 314 315 316 316 314 312 326 335 329 336 342 341 344 344 342 341 344 343 342 344 345 344 345 345 345 345 346 346 346 346 346 346 346 346 344 343 342 341 340 339 337 338 339 339 338 336 330 324 323 324 324 326 327 328 329 329 328 323 318 318 317 314 313 313 313 312 311 312 314 313 313 315 314 315 316 314 315 321 325 324 323 323 324 324 325 326 325 324 323
318 316 316 316 315 314 314 314 314 315 316 315 314 313 326 339 337 340 340 340 345 343 343 343 343 341 341 344 344 343 345 345 344 344 346 346 346 346 345 346 346 345 344 342 341 340 340 340 339 339 340 340 340 339 334 330 327 329 329 330 331 331 332 332 331 329 326 326 324 320 317 314 313 313 311 311 314 315 312 313 314 313 315 315 313 316 322 324 323 324 325 325 325 325 325 324 323
318 317 316 315 314 314 314 315 315 314 315 315 315 312 320 337 341 342 340 341 345 344 345 344 342 342 341 342 343 343 345 345 343 344 344 345 345 345 345 345 345 345 344 342 341 340 339 340 339 339 339 339 340 340 337 334 331 332 333 333 333 333 334 333 333 332 331 331 329 327 325 321 317 314 313 311 313 315 314 312 313 312 313 313 313 313 317 321 323 325 326 327 326 326 325 324 323
318 317 316 315 314 314 314 316 314 312 315 315 315 312 315 333 343 343 343 343 344 344 344 343 343 343 342 341 342 344 345 344 343 343 343 344 344 344 344 344 344 345 344 342 340 340 339 339 339 339 338 337 338 338 337 337 335 334 334 334 334 334 335 334 334 334 334 334 333 331 329 328 325 321 319 317 316 315 315 314 312 311 312 311 312 312 313 317 321 324 327 328 327 327 327 324 323
317 316 315 315 315 314 314 315 314 312 315 314 315 313 312 330 343 341 343 344 344 345 344 342 342 343 342 342 342 344 344 344 343 343 343 343 342 343 344 344 344 344 344 343 341 340 339 339 339 337 336 335 336 337 337 338 337 336 336 336 335 336 336 335 336 337 336 337 336 334 333 331 329 329 327 322 318 317 317 316 313 311 312 311 311 313 312 314 319 323 326 329 328 327 328 325 323
316 315 316 316 315 314 313 314 314 314 314 314 315 313 312 327 338 338 343 343 344 344 343 343 341 342 342 342 342 344 344 344 343 342 343 342 340 341 343 343 343 343 344 343 341 342 340 339 337 334 334 335 335 336 337 338 338 337 337 338 337 337 337 337 338 338 338 337 336 336 336 334 332 333 332 326 321 320 318 318 316 313 311 311 311 313 313 313 316 321 326 329 329 328 328 326 324
316 315 316 315 313 314 315 314 315 314 313 313 313 312 312 319 324 334 343 341 340 343 341 339 339 339 341 342 342 343 344 343 343 342 342 341 340 341 341 341 342 343 343 343 342 342 340 338 336 333 334 334 335 335 336 337 338 338 338 338 338 338 338 339 338 338 337 337 336 335 335 335 334 333 334 331 329 326 320 319 319 317 313 310 311 312 313 314 315 320 326 330 330 329 329 326 324
316 315 316 315 313 314 316 315 315 314 313 313 312 313 313 314 320 335 341 333 333 338 338 337 338 338 339 341 342 343 343 343 343 342 342 341 340 342 341 339 340 341 341 342 341 341 339 337 336 334 333 333 334 335 335 337 337 338 337 337 338 338 339 338 337 337 337 336 336 335 335 335 334 332 333 334 333 329 324 322 322 320 316 312 310 311 313 314 316 320 327 331 330 329 329 327 325
315 315 315 316 315 315 316 315 315 314 312 312 313 313 312 315 325 338 337 327 326 328 333 337 338 338 338 341 343 343 343 343 343 342 341 341 340 341 340 339 338 338 340 341 340 339 338 337 337 335 334 332 332 334 335 336 336 335 335 336 338 338 339 338 337 337 337 336 335 335 335 334 333 333 332 332 333 331 326 323 323 322 320 316 311 310 313 316 319 323 327 330 330 329 329 328 326
314 314 313 315 315 315 316 315 314 313 312 312 312 312 313 314 321 333 335 328 324 322 328 337 338 338 338 341 342 343 343 343 342 341 342 341 341 340 340 340 339 338 338 339 338 337 338 337 337 335 334 332 331 332 332 334 334 334 335 335 336 336 338 338 337 337 337 336 335 335 335 334 334 333 330 329 331 332 328 322 323 324 322 319 315 311 314 318 322 326 328 330 331 330 329 329 327
313 315 314 315 314 314 315 315 314 313 312 312 312 311 313 313 314 325 331 328 326 327 331 337 337 338 339 340 342 342 342 342 342 342 342 341 341 341 340 340 340 339 338 338 338 337 338 338 336 335 332 331 332 333 334 334 333 335 336 334 334 334 336 337 336 336 336 335 334 334 334 334 334 334 331 326 327 331 330 325 324 324 323 319 318 314 314 321 326 328 329 330 331 330 329 329 328
314 315 314 314 315 314 315 314 313 313 312 312 312 312 312 313 314 322 327 328 331 334 337 337 336 337 339 340 342 342 342 342 343 342 342 341 342 341 340 341 340 339 339 338 338 338 338 337 337 336 334 332 332 333 334 335 335 337 336 334 333 334 335 335 334 335 335 334 334 333 333 333 334 335 333 326 326 328 328 329 326 323 324 320 319 318 316 322 328 329 330 330 331 331 330 329 329
314 314 314 315 315 315 314 313 313 312 312 312 312 313 312 312 314 320 324 331 337 338 338 336 336 337 338 341 341 342 342 342 343 343 342 341 341 341 341 341 340 339 339 338 338 338 337 337 337 337 335 332 331 333 334 335 336 337 335 334 334 334 334 332 332 334 334 333 333 332 331 333 335 335 332 326 325 326 325 327 326 323 325 324 322 322 318 322 327 329 329 331 331 331 330 329 329
314 314 314 314 313 313 312 312 312 312 312 311 311 312 311 311 312 315 323 334 341 340 337 337 337 337 338 341 341 341 342 342 343 343 342 342 341 341 340 340 340 339 339 338 338 337 337 337 337 336 334 330 331 333 333 334 336 335 334 333 333 333 332 329 331 333 333 332 332 331 331 332 335 333 330 327 326 327 325 325 326 326 327 326 325 326 323 322 325 327 329 330 331 331 330 329 329
313 313 313 313 311 312 313 312 311 312 312 312 313 312 313 312 312 320 332 341 343 339 336 337 337 338 340 341 342 342 342 342 343 343 342 342 341 341 340 340 340 340 339 338 338 338 337 337 336 335 333 330 331 332 332 333 334 334 333 332 331 331 329 328 329 332 332 332 331 331 331 333 335 333 330 329 328 329 328 325 325 325 326 327 327 328 327 325 325 326 327 329 331 331 330 329 329
311 311 312 314 313 314 312 310 309 310 311 312 313 313 313 315 312 323 340 343 341 338 337 337 337 338 340 341 342 342 343 343 344 344 343 342 342 342 341 341 340 340 338 337 337 338 338 337 337 334 332 331 331 332 331 331 332 333 333 332 331 329 328 327 328 331 332 331 331 332 333 333 334 332 331 331 330 331 330 328 326 324 326 327 327 327 329 328 327 326 327 329 331 331 331 330 329
311 311 311 312 313 314 312 310 310 311 312 311 313 313 313 316 311 321 340 343 339 339 337 336 336 337 340 342 342 342 343 344 345 345 343 342 342 342 341 341 340 338 336 335 334 336 337 337 337 336 334 332 331 331 331 332 332 332 332 332 332 331 328 327 328 330 331 331 332 332 333 334 334 331 331 332 332 332 332 331 329 327 327 327 326 327 328 329 329 328 327 329 330 331 330 330 329
310 312 312 311 311 313 312 311 311 312 312 310 313 313 312 316 311 320 339 343 341 343 340 337 336 336 339 341 342 343 343 343 344 346 344 342 342 341 341 340 338 335 335 335 335 335 336 336 337 337 336 334 332 331 331 331 331 331 332 333 334 333 330 328 329 331 331 331 332 333 334 334 334 332 331 332 333 333 332 332 331 330 329 328 327 327 327 329 329 329 329 329 330 330 330 329 328
310 311 313 311 311 312 311 311 310 310 312 311 312 313 313 315 310 319 338 344 342 343 342 340 337 335 340 341 342 343 343 343 344 345 345 343 342 342 341 338 336 336 336 336 336 335 336 336 337 337 337 337 335 333 332 332 332 332 333 334 335 334 331 328 329 331 331 330 331 333 332 333 334 332 331 332 333 333 333 332 331 330 329 328 327 327 327 328 329 329 329 329 330 330 329 328 327
311 311 312 311 311 311 311 312 310 309 312 312 312 313 314 315 311 318 337 344 342 343 343 342 340 339 340 341 341 343 344 343 343 344 345 344 343 343 343 340 338 338 339 338 337 336 336 335 337 338 338 338 337 336 335 334 334 334 333 333 333 333 332 329 328 330 330 329 330 330 330 331 332 331 332 332 332 333 333 333 332 331 330 328 326 327 327 327 329 329 329 329 330 329 329 327 327
312 312 312 311 311 311 311 312 311 311 312 313 313 313 313 315 312 318 335 343 343 343 343 342 342 341 341 339 341 342 343 343 342 343 345 344 344 344 343 342 340 341 340 340 339 336 335 335 336 338 338 338 337 336 336 337 336 335 335 334 333 332 332 330 328 328 328 328 329 328 329 330 330 330 332 332 333 333 332 332 332 331 331 330 327 326 327 327 328 329 329 329 329 329 329 328 327
312 312 313 312 311 311 311 312 311 311 313 313 313 314 314 315 313 318 333 342 343 343 342 342 342 341 341 340 341 342 342 343 341 342 344 345 344 344 344 342 342 342 341 341 339 336 335 335 335 336 336 336 335 334 335 336 337 337 336 336 335 333 331 329 327 327 327 326 327 328 330 331 331 330 330 332 332 333 333 332 332 332 331 331 329 326 325 325 327 329 329 329 329 329 329 328 328
311 311 312 312 311 312 312 312 311 310 313 314 314 314 313 313 314 317 328 339 342 342 342 342 342 342 341 340 341 341 341 342 341 341 344 345 345 344 344 343 342 342 341 341 338 336 335 334 334 335 334 333 333 333 333 335 335 336 335 335 336 333 331 331 329 328 327 326 326 328 330 331 331 330 330 331 331 332 333 333 332 332 332 331 330 326 324 323 325 329 330 329 329 329 328 328 328
312 311 311 311 311 312 312 311 311 311 313 314 311 313 312 313 316 318 326 337 340 340 342 342 342 342 341 340 341 340 341 341 340 341 343 345 345 344 343 343 342 342 341 339 337 335 334 334 334 334 332 331 331 332 333 334 334 334 335 335 335 333 331 332 331 329 328 327 328 330 331 330 330 330 330 330 330 330 332 333 332 332 332 332 331 328 325 324 326 329 329 329 329 329 329 329 328
312 311 312 312 310 311 312 311 312 311 312 313 311 314 316 315 317 319 324 330 330 332 337 340 341 341 340 339 340 339 340 340 340 341 342 344 344 343 343 342 342 342 339 337 335 332 331 331 332 332 331 330 331 332 332 333 333 334 335 335 335 334 333 332 331 330 330 329 330 330 330 329 328 328 327 329 330 330 331 332 332 332 332 332 331 329 328 327 328 329 329 329 329 329 330 330 328
314 312 312 312 311 311 312 312 312 312 312 313 314 317 320 319 320 321 323 323 325 328 332 335 337 339 340 339 339 339 339 340 340 340 341 342 343 343 342 342 342 340 338 335 333 330 329 329 329 329 329 330 331 332 332 332 333 334 335 335 335 335 333 332 331 330 330 330 330 329 329 328 327 326 325 326 328 330 331 331 332 332 332 333 331 330 329 328 329 329 329 330 330 329 330 330 330
314 315 312 312 312 311 312 312 312 313 312 313 316 318 320 321 323 323 324 325 327 330 330 331 332 333 335 337 338 338 338 339 339 340 340 340 342 343 342 342 341 338 336 334 332 331 330 328 328 327 327 329 330 331 332 332 333 333 334 334 334 334 334 332 330 329 328 327 327 327 328 329 328 328 327 326 327 330 331 332 331 331 332 333 332 330 329 328 329 329 329 331 332 330 330 330 330
313 314 313 312 312 312 313 312 313 315 313 313 313 315 318 321 324 325 324 326 328 329 330 331 330 329 331 334 337 337 338 339 338 339 339 338 339 341 342 342 340 337 336 334 332 332 331 328 327 328 327 328 330 331 332 333 332 333 333 333 333 333 333 332 331 328 326 326 326 327 329 330 330 330 330 328 329 330 331 332 332 331 331 332 332 331 330 328 329 330 330 331 332 331 330 330 330
312 314 313 311 312 312 312 312 313 314 314 313 312 314 317 320 324 326 324 326 327 328 330 330 330 329 329 332 335 336 337 338 337 337 337 337 338 339 341 341 338 337 336 334 332 332 333 331 329 328 328 328 329 330 331 333 333 333 333 333 333 333 333 333 332 330 328 327 327 328 329 329 329 330 331 331 331 331 331 332 332 331 330 332 332 331 329 327 328 329 329 330 331 332 331 330 330
313 315 314 310 311 312 312 312 312 313 314 313 312 314 317 319 323 325 324 326 327 328 328 328 329 329 329 333 334 336 337 336 336 336 336 336 336 338 340 340 337 337 336 334 334 334 334 334 332 330 329 328 328 328 329 331 332 333 333 332 332 332 332 332 332 331 330 329 328 329 330 329 329 329 330 331 331 331 331 332 333 332 330 331 332 331 328 328 328 328 328 329 331 332 331 330 330
313 314 312 310 311 312 312 312 313 315 315 313 313 314 316 319 322 325 325 326 328 328 327 327 329 329 330 332 333 335 336 335 335 335 335 335 335 335 337 338 337 337 336 335 335 336 336 335 334 333 332 331 330 329 329 330 331 333 333 332 331 330 330 330 331 331 330 329 329 330 331 331 330 329 331 332 332 331 331 332 333 332 331 331 332 330 327 327 329 328 328 329 331 331 331 331 330
311 310 310 311 312 312 313 312 314 315 315 314 314 314 315 319 323 326 326 327 329 328 327 327 328 329 329 330 331 333 334 334 334 334 335 334 334 334 334 335 336 337 337 336 336 336 336 336 335 335 334 334 332 331 330 330 330 331 332 333 332 332 331 330 330 330 330 330 330 330 331 331 331 330 331 332 332 331 331 331 332 332 332 331 331 329 326 327 329 328 328 330 331 331 330 330 330
310 310 311 311 312 313 314 314 314 315 314 314 313 313 315 316 322 328 329 329 329 328 328 327 328 328 329 329 329 330 332 332 333 333 334 334 333 332 332 333 335 336 336 337 336 335 335 334 334 334 334 334 333 332 331 331 331 331 332 332 333 333 333 332 331 329 328 329 331 332 332 332 331 330 331 332 332 331 331 331 331 332 332 329 329 328 326 327 329 330 329 330 330 330 329 330 331
311 312 313 313 314 314 314 315 314 314 314 313 312 312 314 318 324 328 329 329 328 329 329 328 329 328 328 328 327 327 328 329 330 331 332 332 332 332 333 334 335 335 335 335 334 333 332 331 331 331 331 331 332 332 332 332 331 331 331 331 331 331 331 332 332 330 328 327 330 332 333 332 330 330 331 331 331 331 331 331 332 332 329 327 328 329 328 328 330 331 330 329 329 330 330 330 330
311 313 313 313 314 315 315 314 314 314 314 313 311 312 317 325 328 328 329 329 328 329 329 328 328 328 327 327 326 326 327 327 327 328 329 329 329 329 330 331 332 332 331 330 329 329 328 328 327 327 328 328 330 331 331 331 331 331 330 330 330 330 330 332 332 332 330 329 329 331 333 332 330 330 330 331 331 331 331 331 331 330 328 328 330 330 329 329 331 331 329 327 328 330 330 329 330
311 312 313 313 314 315 315 314 313 315 314 313 312 314 322 328 328 327 328 329 329 328 328 328 328 327 327 326 326 326 326 326 327 327 327 327 327 327 327 327 327 327 327 327 327 327 327 327 326 326 326 326 327 328 329 330 331 331 331 331 331 330 330 330 331 331 330 330 329 330 332 332 331 331 330 330 331 331 331 330 330 329 328 329 330 330 330 330 330 329 329 329 329 330 330 329 330
310 312 313 313 314 315 315 314 315 315 314 314 315 317 324 328 327 327 328 328 328 328 327 327 327 326 326 326 326 326 326 326 326 326 326 326 326 325 325 325 325 325 325 325 326 326 326 326 326 326 325 325 325 325 326 327 328 329 330 330 330 330 329 329 330 330 330 330 330 331 332 331 331 331 331 330 331 331 330 330 330 329 330 329 329 330 330 329 327 327 328 331 331 330 330 330 330
311 310 312 313 314 316 314 312 315 316 314 315 319 322 325 326 326 326 327 327 327 327 327 326 326 325 325 326 325 324 324 324 324 324 324 324 324 324 323 323 323 323 324 324 324 325 324 325 326 325 325 325 325 325 325 325 325 326 327 328 329 329 329 329 329 329 330 330 329 330 332 331 331 331 331 331 331 330 331 330 330 330 330 330 329 330 329 327 327 328 329 330 330 330 330 330 330
311 310 312 312 312 316 315 311 312 316 315 315 319 325 326 325 327 326 325 326 326 326 326 326 325 325 325 324 323 323 323 323 324 324 324 324 324 323 323 323 323 323 323 323 324 324 324 324 326 326 325 325 325 325 325 325 325 326 326 327 327 328 329 329 328 328 329 329 328 329 331 331 331 331 331 331 330 329 330 330 329 329 329 329 329 328 327 327 328 329 329 330 330 329 329 329 329
312 312 312 311 311 314 315 314 312 313 316 319 320 327 328 326 329 328 325 326 326 326 325 326 325 324 323 323 322 322 322 323 324 324 324 323 323 323 323 323 323 323 323 323 323 323 324 325 326 326 326 325 325 326 326 326 327 327 327 327 327 328 329 329 328 328 329 328 326 329 331 331 330 331 331 331 330 329 330 330 329 329 328 329 328 327 327 328 329 328 329 330 330 329 329 329 329
311 313 312 311 313 314 313 314 314 312 317 321 323 325 326 327 328 328 327 327 327 326 325 325 324 324 322 322 321 321 321 322 322 322 322 322 321 321 321 322 322 322 322 322 322 322 323 324 325 326 325 325 326 327 327 327 327 327 326 327 327 327 328 328 328 328 328 327 325 327 330 330 330 331 331 330 330 330 330 330 329 327 327 328 328 327 328 329 328 327 328 330 329 329 329 329 329
311 312 311 312 315 314 313 314 314 314 316 321 326 326 325 325 326 326 327 326 326 326 325 324 323 322 321 320 319 319 320 321 321 321 321 321 321 321 321 321 321 321 321 321 321 322 323 323 324 324 324 324 326 327 327 327 327 327 326 326 326 327 327 327 327 327 326 326 326 327 328 329 330 330 330 330 330 330 330 329 328 327 328 329 328 328 328 328 327 327 328 329 328 327 328 328 327
311 312 312 313 313 312 313 312 311 314 317 320 325 326 324 322 323 325 327 326 326 326 324 323 322 320 319 318 317 317 318 319 319 319 320 320 320 320 320 320 320 319 319 320 320 321 321 322 322 322 323 324 324 326 327 327 327 327 326 325 324 326 326 326 326 327 326 326 325 324 325 327 329 330 330 329 328 328 329 328 328 328 329 330 329 328 328 327 326 327 328 328 326 325 326 325 324
313 313 313 314 314 312 313 313 311 312 317 320 322 324 322 320 321 325 326 326 326 325 324 322 319 318 316 315 315 316 316 317 317 318 319 319 319 319 319 319 318 318 318 318 319 319 320 320 321 322 322 323 324 325 326 327 327 327 327 325 323 324 325 325 325 326 328 327 324 324 325 327 329 329 329 328 327 328 328 329 329 329 329 329 329 329 328 327 326 326 325 323 322 323 324 324 324
Wind_Speed
1 3 5 6 7 7 5 3 1 2 0 1 1 1 2 3 2 2 3 4 3 2 1 4 3 7 4 4 5 2 5 4 2 1 2 1 6 12 15 17 16 23 28 28 27 25 23 21 20 17 16 14 14 15 16 17 17 16 15 13 12 12 13 13 13 14 14 14 14 14 13 13 15 17 19 20 21 23 24 25 26 25 23 21 21 21 22 21 20 19 19 17 16 14 14 14 14
3 5 6 8 8 5 2 2 1 0 1 2 2 2 1 1 0 2 4 4 1 3 6 4 4 4 2 5 5 5 7 5 4 3 4 5 11 12 14 15 15 24 29 29 27 25 23 21 19 17 15 13 13 15 16 16 16 16 15 14 14 14 14 14 14 14 14 14 14 13 13 13 15 17 19 20 21 22 22 23 24 24 23 22 21 21 21 21 20 18 17 16 14 14 14 15 15
4 6 7 8 6 3 3 1 1 1 2 3 2 3 1 3 3 1 2 3 2 1 3 5 2 1 2 4 4 3 4 4 4 5 6 9 12 11 14 14 15 25 29 28 26 24 23 21 19 17 15 13 12 14 16 16 16 16 16 15 15 15 15 15 15 14 14 13 13 13 13 13 14 17 19 20 21 21 21 21 21 22 22 22 21 20 19 19 19 17 16 15 15 14 14 14 14
6 8 8 7 4 3 3 0 0 2 2 2 1 3 2 3 5 2 2 6 7 6 5 4 2 3 4 1 3 4 5 5 5 5 7 11 13 12 14 13 16 26 28 27 25 24 23 21 19 17 15 12 12 14 15 15 16 16 16 15 15 15 15 15 14 14 13 13 13 13 13 13 13 16 19 19 20 21 20 19 19 20 21 21 20 19 18 17 17 16 15 15 15 15 14 14 14
8 9 8 6 3 1 2 0 1 2 3 2 1 2 3 3 3 2 4 10 9 10 11 2 2 2 2 2 3 2 5 5 5 6 9 12 14 13 13 12 16 27 28 27 25 23 22 21 19 17 15 12 11 13 14 14 15 16 15 15 14 14 14 14 14 13 13 12 13 13 13 13 12 15 17 18 19 20 19 18 18 19 19 19 18 18 17 15 15 15 15 16 16 15 15 15 15
10 10 7 5 3 2 2 1 2 3 3 3 2 2 4 3 2 4 6 9 7 7 12 5 1 1 3 2 3 3 5 4 4 6 9 13 14 12 12 12 18 27 27 27 26 24 22 20 19 16 14 12 11 13 14 14 15 15 14 14 13 13 14 14 13 13 12 12 12 12 13 13 12 13 16 16 17 18 18 18 17 17 18 17 17 16 14 13 14 15 16 16 16 16 16 16 16
12 9 5 4 3 2 2 2 2 3 2 4 4 2 4 2 4 5 7 6 2 2 7 5 4 3 2 2 4 5 6 5 4 5 9 13 15 12 12 13 19 26 26 26 25 23 22 19 18 16 14 12 11 12 14 14 14 14 13 13 13 12 13 13 13 12 12 12 12 12 12 13 13 13 15 15 16 15 16 17 17 17 16 16 15 15 14 13 14 15 16 16 17 17 17 18 18
12 7 3 2 1 1 1 1 2 2 2 3 5 7 3 3 5 6 6 2 1 0 5 6 6 3 3 4 3 4 4 5 4 5 9 12 14 14 12 14 20 26 25 25 23 22 21 18 17 16 14 12 11 12 13 14 14 13 12 11 11 11 11 12 12 12 11 11 11 12 11 12 13 13 14 15 15 15 15 16 17 17 16 16 15 14 13 13 13 15 17 17 18 18 18 18 19
10 5 3 2 1 0 1 1 3 2 4 5 6 10 9 7 8 8 6 4 4 3 6 8 5 1 5 4 2 5 3 2 3 5 10 11 13 15 13 15 21 25 25 24 20 19 21 18 17 15 14 12 11 11 12 13 12 12 11 10 10 10 10 11 11 11 11 11 11 11 11 11 11 13 14 14 14 15 15 15 16 16 16 16 15 14 13 13 13 16 18 17 17 17 18 18 20
8 3 3 1 1 1 1 1 2 2 5 5 7 13 12 10 10 9 7 4 5 5 9 9 2 1 6 4 3 5 3 2 2 6 12 12 13 16 14 16 21 24 24 23 19 19 21 18 16 15 14 12 11 11 11 11 11 11 10 10 9 9 10 10 10 11 11 10 11 10 10 10 10 12 14 14 14 14 15 15 15 15 16 16 15 14 12 12 14 17 18 16 16 17 17 18 19
5 2 3 1 1 2 2 3 4 4 5 5 8 11 9 8 8 8 8 4 4 6 9 7 2 4 6 2 3 5 3 2 3 8 13 13 14 16 15 16 19 21 23 22 19 19 20 18 16 15 14 13 11 10 10 10 10 10 10 10 10 10 10 9 10 10 10 10 10 10 10 10 10 11 13 14 13 13 14 14 14 14 15 15 14 13 11 11 12 17 18 16 15 16 17 18 19
3 1 2 1 2 2 2 3 4 6 6 5 4 4 8 5 5 6 8 6 6 6 8 5 3 7 4 1 3 4 4 3 5 9 12 12 13 14 14 15 16 18 19 19 18 17 19 19 17 15 15 13 12 11 10 10 10 10 10 10 10 10 10 9 9 9 9 8 8 9 10 10 10 10 12 14 13 12 12 13 13 13 14 14 14 12 10 9 10 15 18 16 15 16 16 17 18
3 2 2 2 1 1 1 2 3 4 4 2 2 8 11 2 4 4 9 8 7 7 6 4 4 7 2 1 4 5 6 5 6 8 10 12 13 13 13 14 14 15 17 18 17 17 17 18 17 16 15 14 13 12 11 11 11 11 11 10 9 9 8 8 8 8 8 8 7 8 10 10 10 10 10 13 14 13 13 12 12 12 12 12 13 12 10 9 9 12 16 16 15 15 16 17 17
4 3 2 1 1 0 2 2 2 2 2 0 4 12 9 1 2 6 11 9 7 5 5 5 7 6 2 2 3 6 8 8 8 8 10 12 13 13 13 14 14 14 16 17 17 17 17 17 17 17 16 15 14 13 12 12 12 12 11 10 9 8 7 7 6 6 7 9 9 9 9 10 10 10 10 11 14 16 15 14 12 12 12 11 12 12 11 10 8 10 14 15 14 14 15 16 16
6 4 1 1 1 0 3 2 1 1 1 1 6 14 6 4 4 8 7 7 6 5 7 8 9 4 2 3 1 6 10 10 11 11 12 13 13 12 13 14 13 14 15 15 16 16 16 16 17 17 15 15 15 14 13 13 12 12 11 9 8 7 6 6 5 5 6 8 8 8 8 10 10 11 11 11 12 15 16 16 15 14 14 12 12 13 12 10 9 8 11 14 13 12 14 15 15
7 4 1 1 2 1 2 2 0 1 1 1 6 14 5 3 5 5 3 7 8 8 9 7 8 2 1 3 2 6 11 12 12 11 13 13 13 12 12 13 13 14 14 15 16 16 16 15 16 16 16 16 15 15 14 14 13 11 10 9 7 6 6 5 5 5 6 7 7 7 7 8 10 11 12 12 11 13 14 15 15 14 14 14 12 13 13 11 10 8 8 10 11 11 12 13 13
7 3 2 1 2 3 3 4 2 1 3 3 7 14 5 1 3 3 4 9 12 11 8 6 8 1 1 4 1 5 11 13 13 12 13 14 14 13 13 13 14 14 14 16 16 16 16 15 16 16 16 16 15 15 15 14 13 12 10 9 8 7 7 7 7 7 7 7 7 7 7 7 8 9 11 12 12 13 14 14 14 13 13 13 13 13 13 13 11 9 7 8 9 9 11 12 12
6 2 2 3 3 3 3 5 3 0 3 5 9 14 6 1 3 6 6 7 11 10 5 5 7 2 1 5 3 6 12 14 14 13 13 14 15 14 14 15 15 15 15 16 16 17 17 15 16 16 16 17 16 16 15 14 13 13 12 10 10 9 9 9 9 9 9 8 8 8 7 7 8 8 9 11 12 13 14 15 16 16 14 13 14 14 14 13 13 11 8 7 8 8 9 10 10
4 1 3 4 4 2 2 3 2 2 4 8 11 12 6 0 4 4 3 4 7 7 4 5 5 2 2 5 6 9 13 15 14 14 14 13 15 16 15 16 17 16 15 16 17 16 16 16 15 16 17 17 17 16 16 15 15 14 13 12 11 11 11 11 10 10 10 9 9 8 8 8 8 8 9 10 12 13 14 15 16 17 17 15 16 16 15 15 14 13 10 8 7 7 8 8 9
4 2 5 5 3 2 4 5 7 8 8 9 10 11 9 2 4 2 2 5 5 6 5 5 7 8 7 8 10 11 14 14 14 14 14 13 14 15 15 18 18 16 16 16 16 15 15 15 15 16 16 16 17 17 17 17 16 15 15 14 13 13 13 12 12 11 11 10 10 9 8 8 8 8 9 10 11 12 14 16 17 17 18 18 18 18 17 17 16 15 12 9 8 7 7 7 7
4 4 5 2 2 3 6 6 9 9 7 5 8 10 9 4 5 5 5 6 3 6 8 6 7 12 13 12 12 12 14 14 14 14 14 13 13 13 13 18 18 16 18 17 16 15 15 15 14 16 16 16 17 17 18 17 17 17 16 17 16 15 14 13 13 13 12 12 12 10 9 9 8 9 9 9 10 11 13 15 17 17 18 19 20 19 19 19 18 17 15 11 9 8 7 6 6
4 5 5 3 2 3 6 6 6 5 4 5 7 7 7 6 6 8 9 4 2 5 9 7 5 10 14 14 13 13 14 14 15 15 16 14 14 14 12 16 17 17 18 17 17 15 15 15 14 16 16 17 17 17 18 17 17 17 17 19 18 18 16 14 14 14 14 14 12 11 10 10 9 10 10 11 11 10 12 13 14 15 17 18 20 20 21 21 20 19 17 13 10 9 7 6 6
5 4 5 9 9 7 9 7 7 8 7 7 6 6 6 6 5 9 9 2 0 3 7 8 6 9 13 13 13 14 14 15 15 15 16 14 14 14 12 12 13 15 16 16 17 16 15 15 15 15 16 17 17 16 16 16 16 17 18 19 19 18 16 15 16 16 16 14 14 12 12 12 11 11 11 13 12 10 11 13 12 14 16 17 19 21 22 23 22 21 18 15 12 10 8 6 6
5 5 4 8 11 13 14 12 13 14 13 12 9 8 7 4 3 6 9 5 4 3 4 7 6 9 11 12 13 13 14 14 14 15 14 13 12 13 12 10 10 11 13 15 16 17 16 16 16 15 15 15 15 15 16 17 18 19 20 19 18 18 16 16 17 18 17 16 15 14 14 14 13 12 12 12 13 12 11 13 14 14 16 16 18 21 23 24 23 22 19 16 14 12 10 7 6
7 7 4 5 9 11 13 14 15 14 13 13 9 6 4 5 3 4 8 8 5 3 4 7 7 9 10 11 12 12 13 13 13 13 13 14 12 11 11 10 10 9 10 11 12 13 13 14 16 16 16 15 15 16 18 19 20 20 19 18 18 17 16 16 18 18 17 17 17 16 15 14 14 13 12 11 13 14 13 13 15 16 16 16 17 20 23 25 24 23 21 18 15 13 11 9 7
9 11 6 5 8 9 11 14 14 12 10 8 4 2 1 4 4 3 7 7 4 4 7 8 8 10 11 11 11 11 12 12 13 13 13 13 13 12 11 11 10 8 7 8 9 10 10 12 15 15 16 17 18 19 20 20 19 18 17 17 17 16 15 16 18 18 17 18 19 17 16 15 15 14 12 12 13 15 15 14 15 17 17 18 19 20 23 25 25 23 21 19 16 14 13 10 8
9 13 10 10 11 11 12 13 14 14 12 10 7 2 2 4 4 2 6 6 4 7 10 10 10 12 12 11 10 10 10 11 12 12 13 13 14 13 12 11 10 8 8 9 10 11 12 13 14 14 14 16 18 19 20 19 17 16 17 17 16 15 16 17 18 17 16 17 18 18 17 17 16 15 13 14 14 14 15 15 15 16 17 20 21 21 22 25 25 24 22 20 17 15 14 12 9
7 9 8 9 10 10 12 12 13 11 8 7 7 4 4 5 4 3 6 6 6 9 11 11 12 12 11 10 9 9 9 10 11 13 14 14 14 13 12 11 10 9 8 8 9 10 11 12 12 12 12 14 17 18 18 17 16 16 17 16 15 16 17 18 18 16 16 17 18 18 17 17 17 16 14 15 14 13 13 14 15 16 17 21 23 23 23 24 26 25 23 21 19 16 15 13 11
5 6 4 4 3 6 8 8 7 4 3 2 5 5 5 5 4 4 7 8 8 9 12 13 12 11 10 9 8 8 8 10 12 13 13 13 13 11 10 9 8 7 6 6 7 6 8 11 12 13 12 13 16 17 18 17 16 17 16 14 16 17 16 18 18 16 15 17 17 18 18 18 18 17 15 15 15 15 14 14 15 17 18 21 23 24 24 24 25 25 23 22 20 18 16 15 12
5 4 3 2 2 3 3 1 2 4 2 2 5 4 4 3 3 7 9 10 11 11 12 14 13 11 9 8 8 8 9 11 12 12 12 12 11 10 9 7 6 5 5 5 5 5 6 9 11 13 14 16 17 17 17 17 18 18 17 16 18 17 16 17 18 16 15 16 18 19 20 20 19 18 16 16 16 16 15 14 15 16 18 20 23 25 25 24 24 24 24 23 22 20 18 17 14
4 4 1 1 2 3 0 2 3 4 1 4 6 3 2 1 3 10 12 12 14 14 14 15 13 11 9 7 7 7 8 10 10 11 11 11 10 10 8 6 6 6 5 5 4 5 6 7 9 11 13 15 17 16 16 16 17 18 18 18 18 17 15 16 17 17 16 16 18 20 22 21 20 19 17 17 16 16 15 14 14 14 17 20 22 25 26 25 25 24 24 24 22 21 20 18 16
1 4 3 1 3 2 2 1 4 3 1 4 5 3 2 2 1 8 12 11 10 8 11 15 14 11 9 6 6 7 6 6 8 10 11 10 10 9 7 7 8 7 5 5 5 5 7 8 8 10 11 12 14 14 15 15 16 17 17 17 17 16 14 14 16 17 17 17 18 21 22 21 20 19 19 18 17 17 17 16 15 15 16 18 20 24 26 26 26 24 24 23 22 22 21 19 17
1 3 3 3 4 2 1 1 2 2 2 2 3 1 1 1 2 4 10 10 8 5 7 12 14 12 8 6 6 5 4 3 6 11 10 9 9 8 7 8 8 7 5 5 5 6 7 8 8 9 10 10 11 12 13 14 16 17 16 16 17 16 15 14 16 18 18 19 20 20 18 18 20 20 19 19 19 19 18 18 18 17 17 16 18 22 25 26 27 25 24 23 21 21 20 19 17
2 1 2 2 3 3 1 1 1 1 2 4 3 2 2 1 3 3 9 10 9 7 7 9 11 10 6 6 6 3 4 3 3 9 10 8 8 7 8 9 8 7 6 5 6 6 6 7 7 8 9 9 10 11 12 15 16 17 16 16 17 17 18 16 17 18 19 21 21 17 14 15 19 20 21 21 19 18 18 19 19 19 18 16 16 19 23 26 27 26 24 23 22 19 18 17 15
5 5 4 2 2 2 1 1 1 1 2 4 5 5 6 4 3 3 8 9 10 8 7 6 8 7 5 8 6 2 3 2 1 5 8 8 9 8 9 10 9 8 7 7 6 6 6 6 7 7 8 9 10 10 12 14 15 16 16 16 16 17 17 16 17 19 20 22 20 14 13 14 16 19 21 20 17 17 18 19 20 21 20 16 14 16 21 25 27 26 24 23 22 19 16 15 14
7 5 5 4 4 2 1 1 1 2 1 4 7 7 7 6 1 3 5 8 10 9 7 7 8 7 6 9 4 3 2 1 2 3 5 8 9 10 10 11 10 9 8 8 7 6 6 6 7 7 8 9 11 12 13 15 15 15 16 16 16 15 15 14 16 17 19 21 18 13 13 12 13 15 17 18 17 16 18 19 20 21 20 17 14 15 18 22 25 26 25 22 21 20 17 14 13
6 5 4 3 3 3 1 1 2 2 1 3 4 5 5 2 4 6 2 5 9 10 9 9 10 7 6 8 3 2 0 1 3 5 4 6 8 9 11 11 11 9 8 8 7 6 7 7 7 7 7 8 9 11 12 14 16 16 16 16 15 14 15 13 13 15 17 18 16 14 13 11 11 12 14 16 17 17 18 18 18 20 21 19 17 16 16 17 21 24 24 22 21 20 19 16 15
5 5 4 2 3 3 1 0 2 1 1 0 1 3 1 5 6 7 4 5 6 8 10 12 11 8 6 6 3 0 1 2 4 6 5 6 7 9 11 11 10 9 8 8 7 7 6 7 7 7 7 6 6 9 11 13 15 17 17 16 14 14 14 12 12 13 15 15 14 13 12 10 10 11 13 14 15 17 19 18 17 19 21 21 20 19 16 16 19 22 23 23 21 20 18 18 17
3 3 3 3 3 1 1 1 3 1 1 1 2 4 4 6 4 7 7 2 1 1 7 10 9 9 7 5 4 3 3 4 5 6 6 6 7 9 10 11 10 9 8 8 7 6 5 6 7 8 8 7 6 7 11 14 16 16 16 16 15 14 14 12 12 14 15 15 14 12 11 10 10 12 12 13 15 17 19 19 17 18 20 22 23 21 18 17 20 22 22 22 22 20 18 17 17
1 3 3 3 3 2 3 2 2 1 1 1 6 7 5 5 3 6 9 4 5 7 1 1 3 5 6 6 6 4 5 6 6 6 6 6 7 9 10 11 11 9 8 7 6 5 5 6 7 8 9 8 8 7 8 11 14 14 14 14 14 14 14 14 14 16 17 17 15 13 12 12 13 14 14 14 14 16 18 18 17 18 19 21 23 22 19 19 21 22 22 22 21 20 19 17 16
1 2 4 3 3 3 2 2 1 1 2 2 7 7 4 4 4 4 7 5 6 10 9 7 7 3 2 5 6 5 6 6 5 6 6 6 7 9 11 13 12 10 9 8 6 4 5 7 8 8 10 10 9 8 7 8 11 12 12 12 13 15 15 16 17 17 17 17 15 13 13 13 15 16 16 15 15 16 18 17 17 20 20 20 22 22 20 20 20 21 21 21 20 18 17 17 17
2 4 6 5 5 4 1 2 0 2 3 2 3 3 3 3 4 4 6 5 7 9 10 11 11 9 4 1 3 3 3 3 2 4 5 5 7 9 12 13 13 11 9 9 7 4 5 7 8 9 10 11 11 10 8 7 10 12 12 13 14 15 17 18 18 18 17 16 15 14 14 14 15 16 17 17 17 17 18 18 18 21 21 20 22 23 21 20 20 20 20 20 18 16 16 16 17
4 4 6 5 4 3 3 3 1 2 2 1 1 2 3 2 2 5 5 3 6 8 10 12 12 12 9 5 3 2 3 3 4 4 4 5 6 10 12 13 13 12 10 9 7 6 6 7 7 9 10 11 12 12 9 8 9 12 13 13 14 16 18 19 20 20 19 18 17 16 15 15 16 17 18 18 18 18 18 18 19 21 22 21 22 23 21 19 19 19 20 19 18 18 17 16 17
3 3 7 8 6 6 6 4 3 2 0 2 0 2 3 4 2 5 4 1 7 9 10 11 12 13 10 7 5 3 4 3 4 4 4 4 5 8 12 13 13 12 10 9 8 7 8 7 7 8 9 10 11 13 12 10 10 12 14 15 16 17 19 21 22 22 21 20 19 18 16 16 17 18 18 17 18 18 17 18 19 21 22 23 23 22 20 18 18 19 20 20 19 18 16 16 17
2 3 6 7 5 6 4 3 3 0 1 4 3 2 3 3 1 3 2 3 7 9 9 9 10 12 11 10 9 7 6 5 4 3 3 3 3 6 11 12 12 11 11 10 9 9 9 9 9 9 10 10 11 13 14 13 12 12 15 16 18 19 21 21 22 22 23 22 22 21 18 16 17 18 19 17 18 18 18 19 19 20 22 23 23 22 20 18 18 18 20 21 20 17 15 15 16
2 6 6 4 3 2 2 2 3 1 3 5 3 1 2 3 1 2 3 4 5 6 6 7 9 10 10 10 11 11 10 9 9 8 7 3 3 6 8 10 12 12 12 11 12 12 12 12 12 12 12 12 12 13 15 15 15 15 16 18 19 21 22 22 22 23 24 25 25 23 21 17 15 17 18 17 19 20 19 20 21 21 22 24 23 22 21 21 20 19 20 20 18 16 15 16 16
7 8 6 5 3 2 1 1 1 3 4 2 2 3 2 3 1 1 2 2 3 4 5 7 9 10 10 10 11 12 12 11 10 10 8 3 3 5 6 8 10 12 13 13 14 13 13 13 13 13 12 12 12 12 14 15 15 16 18 19 21 23 24 24 24 23 23 25 26 24 21 17 14 15 16 17 19 20 20 21 22 22 22 24 23 22 22 22 21 19 19 17 16 16 15 16 16
6 5 4 5 3 1 2 1 1 4 4 1 2 3 3 3 2 1 2 3 4 4 4 6 8 10 11 10 10 11 11 11 10 9 7 3 2 3 4 5 8 10 12 13 13 13 12 12 12 12 12 11 10 9 11 14 14 15 18 20 22 24 25 25 25 24 24 25 26 23 19 16 13 14 16 17 18 19 20 21 21 21 22 23 23 22 22 22 21 18 17 16 15 15 15 15 16
5 4 6 7 4 3 4 3 3 4 2 1 2 3 0 2 2 3 4 5 5 5 5 7 8 11 12 11 10 11 11 11 11 10 8 6 4 3 1 2 4 7 8 9 10 11 11 11 10 10 10 10 9 8 10 12 13 14 17 20 23 24 25 25 23 23 23 25 26 23 17 15 14 13 14 16 17 18 19 19 19 20 21 23 23 22 21 21 19 17 16 16 15 14 14 15 15
7 6 8 8 5 6 5 3 2 2 2 1 3 2 2 3 3 4 4 4 6 7 8 9 11 12 12 12 12 13 13 13 13 13 12 11 10 9 7 6 5 5 7 8 9 10 10 9 10 10 10 10 10 9 11 14 15 16 18 20 23 24 24 22 20 20 20 22 25 21 16 15 15 13 12 13 16 18 18 19 20 20 20 21 21 21 20 18 17 17 16 16 15 15 14 14 15
6 3 4 5 4 4 4 4 3 3 3 2 1 0 2 3 4 5 4 5 8 9 9 11 12 13 13 14 15 16 16 16 15 15 14 12 12 11 10 9 8 8 8 9 10 10 10 10 9 10 11 12 12 11 12 14 16 18 19 20 22 23 22 19 19 19 17 19 22 19 15 14 15 14 12 12 15 17 19 21 21 20 19 19 19 18 18 17 17 17 17 16 15 15 16 16 16
4 1 1 4 3 3 3 1 1 3 3 2 2 1 1 2 3 4 4 5 9 10 10 12 13 13 14 16 18 17 17 16 16 16 14 13 13 13 12 12 11 11 10 10 11 11 11 12 12 14 15 14 14 14 13 15 17 18 20 21 23 23 21 20 20 20 17 17 19 17 15 14 14 13 13 13 15 17 20 21 21 20 19 18 17 16 16 16 16 16 16 15 14 15 16 15 15
4 3 4 2 2 4 5 2 2 1 3 2 2 0 2 2 4 6 5 3 7 8 10 12 12 13 15 16 16 16 16 16 15 15 14 14 15 15 14 14 14 14 13 11 10 10 11 12 14 15 15 14 13 14 14 15 17 18 20 22 23 24 22 20 20 19 16 15 15 14 13 14 13 14 15 16 19 19 20 20 20 20 19 18 17 16 16 15 15 14 15 15 14 14 14 13 13
5 6 6 3 2 2 3 3 2 1 3 2 1 1 3 3 4 8 8 6 6 7 9 11 12 13 14 14 15 15 15 15 14 14 14 15 16 16 16 16 16 15 14 13 12 12 12 13 13 14 14 14 14 14 13 12 14 16 18 18 18 19 19 17 17 17 16 14 12 12 12 13 14 15 16 18 20 21 20 20 19 19 18 18 17 15 15 14 14 14 15 15 14 13 13 12 12
2 6 7 3 2 3 2 2 4 4 3 2 1 1 4 5 3 8 12 10 8 8 8 9 11 12 12 12 12 13 14 14 14 15 15 16 17 17 16 16 17 17 16 15 15 15 15 14 13 13 14 14 14 14 12 10 12 14 16 15 12 11 11 12 14 15 14 11 10 11 13 15 15 16 17 18 19 20 20 19 19 18 17 17 16 15 15 14 14 13 13 13 12 12 12 12 12
2 5 6 1 1 3 2 2 2 4 4 2 2 1 4 5 3 8 12 11 10 9 7 8 11 12 11 10 9 10 11 12 13 14 15 16 17 16 15 16 17 17 16 16 16 16 16 15 14 14 14 14 14 14 13 11 12 13 14 15 12 8 5 5 8 9 8 8 8 10 12 15 17 18 17 17 17 18 19 19 18 17 17 17 16 15 15 15 14 14 14 14 13 13 13 12 12
4 7 6 2 2 1 2 2 1 2 4 3 4 2 4 2 2 7 12 11 10 10 8 9 11 13 11 10 9 9 10 11 12 13 14 15 15 15 15 16 16 16 15 16 16 16 16 15 15 15 15 15 15 14 13 12 12 11 11 12 13 11 7 2 1 2 5 7 8 10 13 16 18 19 18 18 18 18 18 18 17 16 17 17 16 16 15 15 15 15 14 14 13 13 13 12 12
6 6 6 4 4 4 5 3 1 2 3 4 4 3 3 1 1 6 10 11 11 12 12 11 11 12 12 11 11 10 11 12 12 12 13 14 14 15 16 17 17 17 17 17 17 16 16 16 16 16 17 17 16 15 13 12 11 10 8 8 10 12 10 5 1 3 8 8 9 11 15 17 18 19 19 18 17 17 17 17 16 17 17 17 16 15 14 15 16 15 13 12 12 12 12 12 12
Wind_Direction
209 213 189 170 154 148 133 122 158 60 127 238 169 249 213 211 336 289 285 307 268 358 335 279 202 170 166 163 182 127 68 104 106 80 119 34 153 151 165 172 175 178 173 172 176 173 172 178 180 181 180 180 182 182 181 181 182 181 180 177 172 169 164 162 157 151 145 140 132 123 118 115 112 110 111 112 115 119 122 124 123 122 121 118 117 117 117 117 115 111 109 108 106 103 98 92 91
189 194 175 163 150 150 143 90 232 86 203 238 192 209 45 112 90 255 290 333 298 33 63 77 125 161 182 138 123 107 81 45 35 82 93 125 143 142 160 167 176 178 174 174 174 172 172 177 180 181 180 179 181 181 180 180 182 180 178 173 169 166 162 159 156 153 148 142 133 127 122 115 114 116 118 118 120 123 124 125 125 125 123 121 119 120 121 119 116 114 113 110 105 99 95 94 96
183 175 163 156 143 127 124 70 239 170 209 231 223 197 106 115 148 177 271 319 318 320 51 46 72 14 353 127 83 73 80 37 59 97 108 131 141 137 155 166 176 177 176 174 173 172 173 176 180 181 180 178 179 180 180 179 180 180 176 171 168 165 161 159 157 154 148 142 136 130 123 117 116 120 123 123 125 126 126 126 126 127 126 125 125 124 125 123 121 120 116 108 100 97 98 99 99
174 161 152 143 132 107 116 10 172 172 208 219 262 183 166 143 153 178 264 314 309 253 269 347 351 353 345 71 51 56 77 69 72 102 129 140 147 141 151 163 173 176 176 174 172 173 173 176 179 180 180 176 175 178 179 179 179 179 175 171 168 165 161 160 157 153 149 145 140 133 125 121 120 123 128 129 129 130 130 129 127 128 130 131 132 132 131 129 125 119 111 102 98 99 102 101 96
168 156 148 139 145 118 117 109 109 201 213 166 304 121 153 168 151 226 291 324 314 247 237 282 6 47 61 43 20 48 75 81 76 101 135 147 150 143 152 159 171 175 175 174 172 172 175 176 177 179 179 173 171 175 177 178 179 178 175 172 169 166 162 160 157 154 152 148 145 137 129 126 124 126 132 134 133 134 136 133 129 128 130 134 135 134 134 129 123 115 106 101 101 103 101 98 92
166 151 137 126 124 121 141 191 173 220 224 173 262 57 120 191 260 269 303 330 327 237 224 231 268 132 100 42 38 87 90 97 88 101 135 151 153 149 158 163 172 177 177 175 172 173 174 175 177 178 177 170 167 171 175 176 178 178 176 174 171 168 166 162 160 158 155 151 149 143 134 131 131 132 135 138 137 138 139 136 130 128 129 134 135 135 134 126 119 112 106 106 107 106 103 98 91
162 148 125 118 88 88 205 235 208 235 223 179 243 314 114 192 272 282 313 333 348 183 206 213 188 165 130 124 98 115 102 102 113 120 142 153 158 160 165 171 175 177 179 176 173 174 174 175 176 176 175 169 164 168 174 175 178 179 177 175 173 172 170 166 165 163 159 154 153 148 142 136 136 138 140 142 142 139 137 137 135 132 132 134 135 136 134 124 117 110 109 113 113 109 103 97 91
161 147 111 137 83 28 218 225 238 239 209 198 253 269 244 232 254 276 304 297 287 172 183 173 160 166 152 143 108 148 121 102 121 132 148 153 163 169 170 176 178 178 179 176 172 174 175 174 176 175 173 167 163 166 171 175 179 180 177 175 175 175 173 172 170 168 163 159 158 154 149 143 139 141 146 147 145 143 140 141 141 139 137 137 138 136 132 125 119 114 114 116 112 106 102 97 91
156 139 109 141 166 89 187 255 259 231 248 257 257 257 259 256 245 254 266 240 257 243 182 165 160 202 160 148 96 155 153 106 126 140 155 156 167 174 175 179 179 178 179 175 169 173 175 175 176 173 171 167 161 163 168 173 178 180 177 175 176 175 177 179 175 172 168 164 164 160 156 152 143 142 150 152 149 149 146 146 146 143 141 140 140 137 135 132 123 116 115 114 109 106 101 96 90
146 121 117 119 173 218 229 249 249 237 257 261 273 269 270 261 240 233 240 252 243 205 178 170 177 161 155 152 111 158 172 126 149 157 161 159 167 175 177 178 179 180 180 175 168 174 176 175 176 172 170 166 161 162 164 168 173 178 178 179 179 177 180 182 179 178 176 172 169 170 168 160 150 145 150 155 153 153 153 151 150 147 145 145 144 143 142 136 125 117 115 113 108 106 100 94 88
136 103 127 138 193 219 231 245 247 268 274 283 287 274 286 273 234 216 223 241 212 186 174 173 178 149 148 137 135 166 167 146 171 160 161 161 165 174 175 173 177 181 180 174 170 175 177 175 174 172 170 165 161 159 160 164 168 174 177 181 183 182 183 180 181 183 182 178 173 174 179 171 160 150 151 157 157 157 159 157 155 152 151 151 150 148 147 138 128 121 118 115 110 105 99 94 89
147 112 144 183 201 215 233 256 264 288 288 301 302 305 335 290 203 194 197 189 174 167 170 181 169 156 143 89 153 173 162 159 169 159 160 155 155 167 168 165 171 176 176 173 169 173 178 177 174 171 170 166 161 157 159 161 165 170 173 177 180 182 182 178 181 184 183 183 182 182 188 185 173 163 156 159 163 162 161 162 162 159 157 157 156 153 151 147 137 127 120 116 109 103 97 93 89
156 142 162 178 187 222 200 256 277 299 301 318 319 328 340 271 210 197 166 152 158 157 171 202 171 160 140 110 173 182 171 169 164 153 147 140 142 153 157 159 164 169 173 173 171 171 175 177 173 171 170 168 163 159 160 160 163 165 166 169 169 170 170 170 173 177 180 185 204 202 193 194 186 181 168 159 167 170 166 166 167 165 164 164 161 158 160 163 153 133 122 116 109 103 98 93 90
155 159 180 166 156 203 202 261 282 275 302 53 335 337 349 354 254 174 146 137 155 153 164 183 165 160 165 164 172 176 174 169 156 137 132 135 138 144 152 158 160 167 173 175 175 173 173 176 175 171 170 170 166 163 161 161 163 162 163 164 161 161 157 155 154 164 179 186 210 212 194 199 199 195 185 167 168 174 173 171 172 172 172 171 168 168 172 176 172 145 126 120 114 107 102 96 93
162 149 149 148 160 223 216 236 331 258 330 108 344 351 7 34 85 146 137 135 153 157 155 160 165 166 192 168 118 178 181 167 153 132 128 132 136 143 151 158 162 168 173 175 175 174 175 180 178 171 169 169 168 167 165 164 166 165 166 164 160 159 152 150 150 170 190 192 208 211 195 200 206 204 201 186 172 173 177 177 178 178 177 176 177 178 180 184 188 169 138 128 121 113 106 101 98
165 134 121 193 187 211 198 186 191 250 344 208 342 358 16 57 88 139 131 142 144 153 158 162 176 171 159 162 71 179 183 169 158 143 138 133 134 143 150 158 168 171 172 175 176 177 177 180 178 172 170 170 168 171 171 170 171 171 172 170 169 169 167 174 178 193 204 204 209 209 198 197 206 209 208 202 183 174 179 182 182 182 180 181 184 184 186 191 197 195 162 139 130 120 112 107 103
161 138 157 192 193 205 198 192 187 186 332 293 343 356 355 55 61 100 112 142 140 147 162 173 185 208 151 178 119 164 174 173 167 154 150 143 140 147 154 162 173 175 173 174 178 181 180 180 181 176 175 175 172 175 176 177 179 179 180 179 180 185 190 194 195 200 204 208 213 212 205 203 209 213 212 209 196 179 178 183 184 185 185 186 189 190 193 197 202 205 190 157 142 130 120 114 110
162 156 183 202 202 205 196 194 197 209 333 321 335 346 332 301 71 107 107 122 134 146 170 171 182 243 217 186 168 158 169 177 172 157 151 149 150 152 158 166 173 177 174 174 178 182 182 184 186 180 181 183 182 184 185 187 189 188 189 188 192 194 197 199 196 199 199 202 210 210 207 208 211 213 210 211 208 190 181 183 184 185 187 191 194 195 199 202 206 209 203 179 155 138 125 120 117
169 121 196 215 197 197 211 214 234 250 316 324 324 339 337 234 112 134 126 121 148 160 176 179 185 203 177 169 163 159 168 178 173 161 150 147 158 158 160 168 172 174 174 177 178 179 182 187 191 188 190 193 192 192 193 196 196 196 197 196 199 198 201 202 196 197 198 199 207 207 204 207 206 206 205 210 215 202 188 184 183 185 187 194 197 197 202 205 209 213 210 195 169 149 134 126 124
190 169 214 225 197 246 253 245 254 266 291 314 321 336 336 264 171 197 158 141 177 197 192 190 196 191 167 155 159 159 165 173 168 162 155 151 159 160 165 170 170 171 172 177 179 179 184 190 196 197 198 199 198 199 200 202 200 202 204 205 206 202 204 203 198 202 204 206 213 212 207 207 202 199 206 214 218 206 195 187 183 187 188 194 197 197 202 206 211 214 213 204 182 167 155 142 134
177 194 226 201 135 253 250 256 272 280 285 300 320 333 341 306 236 224 170 152 190 229 224 213 209 195 171 157 159 158 160 168 166 162 163 163 160 161 172 176 172 173 175 177 179 182 189 194 199 200 202 202 203 205 206 207 204 205 209 213 215 210 209 206 205 210 214 218 220 220 214 211 205 198 201 212 218 206 200 195 189 188 188 192 197 198 202 205 209 213 213 207 194 183 173 162 148
171 210 251 233 189 259 264 286 297 300 303 315 321 324 344 336 273 216 184 168 170 234 237 236 239 197 173 162 160 158 160 165 166 162 167 171 167 166 173 177 179 183 183 182 185 190 193 195 198 202 206 206 207 208 209 211 210 212 215 218 219 216 213 211 213 217 222 221 219 221 219 219 215 207 202 209 221 213 201 200 193 190 190 192 195 197 201 204 208 212 213 209 203 197 187 177 163
201 218 250 243 236 250 267 291 296 293 297 302 301 295 315 331 291 216 199 238 274 259 245 228 228 191 174 164 159 161 163 165 167 167 173 176 171 171 172 176 182 185 187 189 194 198 196 197 199 205 210 210 210 209 212 216 217 221 223 223 223 222 218 215 220 224 225 223 222 225 221 220 219 213 208 208 217 216 205 197 192 195 196 196 196 195 199 202 206 209 211 209 206 207 202 192 179
220 230 233 242 243 247 263 281 285 287 289 290 284 282 290 281 281 216 217 268 284 289 243 211 202 183 175 166 161 163 167 170 172 171 178 180 175 175 176 180 184 184 191 196 199 203 205 205 203 208 215 214 211 209 212 217 220 223 224 225 226 226 222 220 227 229 228 226 225 223 218 219 219 214 212 209 207 209 211 199 193 197 199 204 202 196 198 201 205 207 209 209 207 209 210 204 193
215 232 232 240 249 255 271 283 286 291 294 295 282 260 265 250 244 201 228 264 277 271 199 194 193 181 178 173 169 167 171 173 174 175 179 182 181 179 177 183 190 190 194 196 199 205 208 206 206 211 213 210 206 205 209 213 217 220 221 224 227 228 223 224 231 230 229 229 225 221 219 222 222 218 217 214 203 200 210 204 197 194 197 211 209 198 198 201 204 206 207 209 208 209 213 212 204
204 220 231 238 254 271 282 286 288 296 299 291 254 212 236 224 206 189 233 255 258 197 171 183 190 183 179 175 174 171 171 175 176 178 180 182 184 185 184 186 189 190 191 195 201 207 209 210 213 213 208 204 203 206 209 212 215 215 219 224 228 229 225 229 234 230 229 230 228 223 220 222 225 224 222 219 206 198 204 206 204 198 198 210 209 200 199 201 205 206 206 208 208 209 213 215 209
193 211 230 243 257 276 279 281 284 290 291 266 230 186 104 187 192 201 231 233 209 173 167 179 184 182 182 176 176 176 176 179 180 182 182 183 185 187 190 188 182 184 192 198 203 211 218 220 220 218 211 208 208 210 212 215 217 218 225 226 227 231 230 235 237 232 230 230 231 228 222 222 225 226 223 223 217 204 200 202 206 203 200 202 201 199 199 202 206 207 207 208 208 208 213 216 211
193 200 222 245 254 269 265 270 282 285 293 265 217 170 130 169 192 228 215 187 178 177 170 175 181 183 184 179 176 179 181 180 183 187 185 184 186 185 183 181 181 188 195 197 201 213 223 226 229 231 226 218 216 218 218 220 224 228 232 230 231 234 235 238 237 232 231 230 232 232 226 225 226 226 225 225 223 217 210 205 205 204 202 200 196 197 199 202 206 208 206 207 209 208 212 216 214
188 189 214 247 243 262 249 257 275 251 277 260 180 179 170 166 177 199 190 169 171 181 173 174 184 188 184 181 181 181 183 183 185 188 186 187 187 183 180 183 190 197 202 206 214 226 229 227 234 242 239 230 226 226 227 228 232 239 240 238 240 241 240 240 238 233 231 232 234 235 232 228 227 225 224 224 222 224 222 214 209 206 204 201 197 197 200 201 204 207 205 205 208 208 210 214 217
168 177 232 259 228 257 238 255 246 215 258 200 181 212 195 181 194 181 179 173 171 177 180 181 188 191 187 184 185 186 188 189 188 185 186 190 189 188 189 194 203 211 214 223 232 241 241 232 235 241 239 234 232 233 235 235 238 245 248 249 249 249 248 246 242 235 230 233 238 240 237 231 229 226 224 223 219 220 219 214 213 210 207 204 199 199 202 203 203 204 203 204 205 207 210 214 219
158 149 199 259 213 232 25 67 179 195 210 183 199 238 208 233 215 184 184 182 180 182 184 188 193 195 194 187 188 194 194 192 187 185 189 191 190 192 194 196 205 212 212 220 234 240 246 242 237 239 238 236 237 239 241 242 245 249 254 259 260 258 256 250 245 239 235 237 243 245 239 232 232 230 226 223 219 220 219 213 210 210 211 209 204 202 203 205 205 204 203 203 205 207 210 215 220
121 172 170 167 203 240 348 90 188 213 84 169 207 233 224 275 241 183 186 187 191 190 183 191 200 202 200 194 196 195 188 184 185 188 193 192 187 185 184 188 196 201 204 217 235 243 250 250 243 243 244 241 242 244 246 250 253 255 259 264 266 265 263 255 246 241 240 243 248 251 245 235 234 236 232 227 223 221 220 215 207 206 213 213 209 206 205 206 206 205 204 204 207 209 211 215 219
72 209 166 148 190 219 347 99 197 242 88 160 224 258 177 263 341 173 181 188 199 200 193 199 206 211 211 207 205 194 164 153 189 195 191 190 186 180 182 190 196 203 213 230 247 254 260 260 257 256 252 248 251 255 253 254 256 257 259 261 261 264 267 261 247 239 241 247 250 256 255 243 239 242 240 237 230 224 222 219 209 205 211 213 211 208 208 208 207 206 205 204 207 211 213 216 218
146 189 148 147 190 200 210 117 115 188 178 190 214 246 218 285 354 158 173 189 200 203 206 208 216 220 225 227 218 180 137 123 201 204 190 190 193 187 194 202 206 214 224 239 252 258 264 264 265 265 260 261 263 260 254 254 254 253 256 256 256 261 263 255 241 236 241 250 252 257 262 251 247 249 249 247 238 230 230 225 216 210 210 211 211 209 210 210 208 206 207 207 207 209 214 219 221
159 169 162 146 166 193 215 169 95 95 178 180 191 228 245 265 327 134 163 189 206 215 215 216 234 235 238 245 233 127 119 107 281 217 187 193 203 200 207 214 218 223 232 242 251 260 264 259 261 264 264 267 267 258 249 248 249 252 253 252 252 256 257 249 241 239 242 249 251 252 256 254 253 253 257 261 249 238 239 233 224 215 210 209 209 208 211 211 208 207 207 209 208 208 211 218 222
160 164 169 152 156 185 235 235 307 2 141 175 194 220 234 241 310 71 140 186 205 221 227 228 239 240 239 248 249 85 104 69 318 255 197 200 209 208 214 223 229 231 237 243 249 259 265 260 258 257 256 256 254 248 241 237 242 250 251 250 250 251 253 254 252 247 243 247 250 254 258 258 256 251 257 265 259 248 245 240 233 224 213 210 209 207 209 211 209 208 208 209 211 210 208 208 211
136 130 147 135 156 184 203 239 344 358 208 187 199 217 235 268 18 28 55 184 205 220 231 239 242 242 243 257 293 63 129 320 277 266 242 219 215 215 222 230 237 242 248 252 255 265 270 265 260 262 263 259 250 245 241 237 235 238 243 248 249 247 250 254 256 252 248 248 249 253 257 258 253 247 251 261 261 257 254 246 240 234 221 211 211 207 203 207 209 210 210 209 212 213 210 206 203
121 125 134 134 181 187 156 117 9 3 212 229 162 189 348 12 25 25 39 173 199 223 233 243 248 248 252 269 292 204 223 270 263 270 271 247 227 221 228 235 241 250 260 262 267 276 277 272 273 280 281 279 264 247 248 250 241 234 240 250 252 249 246 243 246 250 250 250 251 251 250 247 243 242 251 262 262 261 261 254 244 237 224 214 213 208 201 202 206 209 211 211 211 214 215 214 207
125 131 141 156 175 207 189 90 8 11 205 274 122 119 47 23 31 38 39 131 145 284 238 245 258 254 248 252 250 234 245 259 264 273 274 260 238 224 232 243 247 254 264 270 279 292 299 293 292 297 296 295 285 255 246 248 241 235 240 248 252 251 245 237 237 241 244 246 245 246 246 241 236 238 251 264 263 259 259 256 246 233 223 218 215 209 205 205 206 208 211 212 211 210 212 216 212
135 153 171 163 145 207 183 128 8 27 11 193 126 103 60 36 44 47 36 33 40 34 39 237 293 257 237 234 239 245 252 259 265 264 263 258 240 224 234 248 253 259 271 283 296 312 320 309 297 298 300 297 289 276 259 244 234 233 242 247 249 248 243 237 234 234 239 241 238 238 241 241 241 241 246 255 259 257 255 254 243 227 221 221 216 210 208 208 209 210 211 212 211 208 207 208 209
232 205 198 178 162 212 175 102 301 114 63 158 133 111 76 39 34 43 25 25 40 34 40 47 37 33 221 228 237 243 250 260 258 245 243 246 238 225 233 248 255 262 279 291 296 311 321 315 307 301 300 296 289 286 280 252 233 234 245 250 251 250 246 241 236 235 237 239 238 238 241 244 246 245 244 247 252 251 250 251 240 225 221 221 216 214 210 207 210 212 212 213 212 211 212 209 208
202 229 217 203 180 198 175 84 359 167 152 179 164 148 123 55 42 42 5 15 48 37 37 34 25 26 35 164 208 219 232 242 205 212 225 230 233 225 229 243 254 268 285 291 296 319 329 319 312 306 302 301 297 294 290 265 243 239 247 254 259 261 261 256 251 249 250 249 246 248 249 250 250 250 249 247 248 248 244 243 234 224 224 222 217 215 209 205 210 214 215 217 216 216 214 213 214
190 210 203 198 175 187 190 153 180 207 162 137 283 218 142 118 60 28 350 12 57 45 43 35 23 22 31 65 111 149 145 137 137 161 194 208 227 226 226 235 250 271 289 298 310 329 333 323 314 310 308 305 303 301 297 281 261 254 257 263 267 271 273 272 267 263 263 262 260 259 258 256 256 255 253 248 245 243 239 234 225 220 224 222 216 213 209 208 213 216 218 221 223 220 212 212 217
184 191 177 178 186 205 198 174 199 238 117 108 320 247 148 135 93 12 328 35 56 41 40 35 29 30 37 58 73 95 116 129 140 152 180 198 228 230 226 230 245 269 287 296 304 312 314 314 311 311 313 314 312 308 305 298 284 273 270 270 272 275 276 276 275 272 272 272 272 270 266 262 260 256 252 246 239 236 235 230 220 215 220 220 215 210 207 213 218 217 220 224 225 222 213 211 218
203 172 166 174 189 203 193 179 194 219 207 178 166 224 175 135 79 5 349 54 50 35 33 32 34 41 45 55 72 89 93 98 112 128 172 198 240 239 232 233 243 259 270 277 284 292 297 300 301 304 311 317 318 316 312 307 299 288 280 276 276 277 279 279 279 278 279 280 280 278 274 268 262 253 246 240 233 230 229 230 223 216 218 217 212 206 204 214 221 217 218 222 221 218 214 211 217
160 135 122 117 96 93 143 177 169 155 220 192 157 233 186 135 53 6 40 48 36 25 31 37 41 53 55 57 76 94 100 105 112 121 139 166 253 256 246 243 245 252 264 276 284 291 295 298 301 303 307 310 314 318 316 310 304 298 291 287 284 283 283 282 281 281 281 282 282 281 277 273 263 249 239 231 228 225 224 228 226 220 217 213 206 202 204 213 220 215 215 222 222 217 214 211 215
130 132 114 107 98 77 111 104 124 186 206 183 65 320 247 155 145 360 42 50 28 17 33 47 53 64 66 63 70 84 98 107 112 120 124 136 254 260 257 253 254 261 274 284 288 292 296 298 298 298 300 302 307 317 320 315 309 302 297 293 290 290 290 289 286 284 282 282 283 280 274 270 260 242 232 227 226 225 223 225 224 218 214 209 203 202 206 213 217 213 213 219 219 216 213 210 216
140 148 139 137 132 119 151 129 192 199 189 103 22 315 272 167 147 143 111 77 49 30 38 53 63 71 70 66 64 69 82 90 94 103 105 107 195 238 246 249 258 267 277 285 290 293 296 295 293 292 295 299 303 308 311 310 302 293 288 286 284 285 288 289 288 287 285 286 289 283 271 265 256 238 228 226 226 224 222 223 219 212 208 206 205 206 208 213 214 212 213 215 216 216 210 205 210
191 175 162 167 162 159 183 189 199 200 164 52 335 307 351 84 89 130 114 77 65 63 65 69 73 77 76 75 70 67 68 67 68 71 69 69 67 50 14 286 273 275 286 295 299 301 302 302 301 300 298 294 290 283 283 286 281 275 276 280 284 285 285 284 285 285 285 289 294 287 275 271 262 243 232 228 224 220 219 218 209 203 204 206 208 209 210 214 213 210 214 217 218 214 206 199 200
195 184 176 177 166 160 169 168 191 191 138 78 322 299 129 108 124 141 110 81 86 84 81 81 80 83 85 83 79 73 69 66 64 63 60 57 52 47 42 29 10 347 337 329 324 323 322 321 315 309 304 299 296 288 277 272 267 267 273 281 287 290 292 289 285 283 283 290 296 288 276 278 267 251 245 234 223 213 206 201 196 197 204 207 208 210 210 212 211 211 215 218 216 208 200 196 195
189 192 186 178 171 168 164 162 170 158 129 94 8 315 137 123 139 137 108 97 99 92 88 86 82 83 85 83 78 74 71 69 69 69 65 60 55 49 43 35 25 16 8 2 3 2 359 357 352 347 347 344 340 330 310 292 282 277 280 286 291 293 294 292 289 287 286 293 297 285 270 272 262 248 242 229 217 205 192 188 190 194 201 204 205 207 207 208 211 215 215 212 209 200 193 193 194
190 172 183 188 176 137 115 95 104 115 117 80 31 8 80 91 136 140 124 109 101 93 88 84 78 78 77 73 71 71 70 69 70 72 67 60 56 48 39 34 27 23 23 22 22 19 12 11 13 14 11 5 357 349 337 324 314 304 297 295 298 299 294 288 285 286 287 292 293 280 263 261 253 239 229 213 200 192 186 185 187 192 195 198 200 202 206 211 214 215 211 204 203 199 194 195 195
148 179 190 183 111 108 120 107 24 64 147 115 17 19 128 140 170 165 169 142 106 94 88 86 79 75 72 67 66 69 70 71 73 73 70 65 60 53 46 40 34 31 29 26 22 16 13 13 14 12 6 358 351 346 342 338 335 328 317 307 304 304 300 290 281 278 283 288 285 272 256 250 242 230 219 200 185 180 181 183 186 190 193 195 197 201 209 214 211 210 206 199 197 195 195 197 194
146 184 175 129 69 75 112 130 104 139 157 116 19 232 182 185 159 155 174 186 145 111 96 96 89 80 74 66 66 74 79 81 80 75 73 69 62 56 51 45 40 35 30 28 24 20 21 18 13 7 357 349 349 351 351 349 347 346 339 326 315 314 312 300 285 280 284 283 273 260 247 239 232 223 211 193 182 179 180 184 187 191 194 196 198 202 209 209 205 207 207 199 192 189 192 196 193
161 162 151 139 167 167 153 146 155 155 135 116 119 265 235 224 181 164 178 181 158 132 112 106 97 87 83 75 73 76 77 76 71 66 61 58 53 45 40 38 36 33 29 27 25 24 24 20 12 5 358 353 355 0 5 1 359 3 358 348 338 334 327 312 298 290 283 268 254 250 239 228 223 218 206 191 185 185 186 188 190 193 197 200 201 201 203 202 200 203 205 199 194 192 195 196 196
20 136 149 236 206 163 164 128 153 156 138 139 137 139 245 228 185 174 178 170 155 146 130 107 94 90 91 90 84 77 73 66 58 53 49 46 43 34 27 27 27 27 25 23 21 19 18 16 10 4 0 359 359 3 6 2 3 12 12 5 359 358 353 325 308 297 275 239 226 232 230 223 217 213 205 194 189 190 192 193 194 197 200 201 199 194 194 196 198 198 197 197 198 196 197 198 199
155 157 161 165 97 123 138 91 39 135 139 145 140 173 241 232 139 169 171 162 152 143 125 104 96 96 95 92 89 84 80 75 63 56 50 41 36 28 20 18 18 19 20 20 18 14 11 11 7 359 355 354 355 360 2 1 1 8 14 11 4 359 357 1 338 253 224 215 213 214 219 221 215 210 204 196 193 194 195 196 198 200 198 196 194 190 188 191 193 192 190 193 196 194 195 196 196
160 166 169 154 128 136 153 149 86 71 119 148 149 186 223 33 90 164 157 152 146 133 118 109 104 102 97 90 91 90 84 77 67 59 50 40 33 26 20 18 18 19 21 22 20 13 10 8 2 356 353 352 354 358 358 358 360 4 6 4 2 2 359 359 8 174 181 199 218 214 212 213 209 205 201 196 196 196 194 195 196 195 192 190 191 189 185 184 184 183 183 188 194 195 195 194 192